Weather History for Poughkeepsie, NY

Change the Weather History Date:

Monday, August 5, 2013

  Actual Average Record
Temperature  
Mean Temperature 64 °F 72 °F  
Max Temperature 78 °F 84 °F 100 °F (1955)
Min Temperature 50 °F 61 °F 45 °F (1951)
Degree Days  
Heating Degree Days 1 0  
Month to date heating degree days 1 0  
Since 1 June heating degree days 32 54  
Since 1 July heating degree days 1 5  
Cooling Degree Days 0 0  
Month to date cooling degree days 22 40  
Year to date cooling degree days 612 443  
Since 1 June cooling degree days 559 407  
Growing Degree Days 14 (Base 50)    
Moisture  
Dew Point 50 °F    
Average Humidity 66    
Maximum Humidity 100    
Minimum Humidity 31    
Precipitation  
Precipitation 0.01 in 0.16 in 1.97 in (1983)
Month to date precipitation 0.42 0.79  
Year to date precipitation 24.03 27.37  
Sea Level Pressure  
Sea Level Pressure 30.01 in    
Wind  
Wind Speed 3 mph (NNW)    
Max Wind Speed 14 mph    
Max Gust Speed 20 mph    
Visibility 10 miles    
Events      
T = Trace of Precipitation, MM = Missing Value Source: NWS Daily Summary

Daily Weather History Graph

Daily Weather History Graph

Search for Another Location

Airport:

Trip Planner

Search our weather history database for the weather conditions in past years. The results will help you decide how hot, cold, wet, or windy it might be!

Date:

Astronomy

Aug. 05, 2013 Rise Set
Actual Time 5:54 AM EDT 8:08 PM EDT
Civil Twilight 5:23 AM EDT 8:38 PM EDT
Nautical Twilight 4:45 AM EDT 9:16 PM EDT
Astronomical Twilight 4:03 AM EDT 9:58 PM EDT
Moon 4:47 AM EDT (8/5) 7:06 PM EDT (8/5)
Length of Visible Light 15h 15m
Length of Day
14h 14m
Waning Crescent, 1% of the Moon is Illuminated
Aug 5
Waning Crescent
Aug 6
New
Aug 14
First Quarter
Aug 20
Full
Aug 28
Last Quarter

Hourly Weather History & Observations

Time (EDT) Temp. Dew Point Humidity Pressure Visibility Wind Dir Wind Speed Gust Speed Precip Events Conditions
12:53 AM 54.0 °F 53.1 °F 97% 29.96 in 10.0 mi Calm Calm - N/A   Clear
1:53 AM 54.0 °F 51.1 °F 90% 29.96 in 10.0 mi Calm Calm - N/A   Clear
2:53 AM 53.1 °F 51.1 °F 93% 29.97 in 10.0 mi Calm Calm - N/A   Clear
3:53 AM 53.1 °F 51.1 °F 93% 29.98 in 10.0 mi Calm Calm - N/A   Clear
4:53 AM 52.0 °F 50.0 °F 93% 29.99 in 10.0 mi Calm Calm - N/A   Clear
5:53 AM 51.1 °F 48.9 °F 92% 30.01 in 10.0 mi Calm Calm - 0.01 in   Clear
6:53 AM 53.1 °F 51.1 °F 93% 30.04 in 10.0 mi Calm Calm - N/A   Clear
7:53 AM 60.1 °F 55.0 °F 83% 30.04 in 10.0 mi Calm Calm - N/A   Clear
8:53 AM 66.0 °F 46.0 °F 48% 30.04 in 10.0 mi NNW 4.6 mph - N/A   Clear
9:53 AM 68.0 °F 45.0 °F 43% 30.05 in 10.0 mi NNW 10.4 mph - N/A   Clear
10:53 AM 69.1 °F 45.0 °F 42% 30.04 in 10.0 mi NNW 8.1 mph 17.3 mph N/A   Clear
11:53 AM 71.1 °F 46.9 °F 42% 30.03 in 10.0 mi Variable 4.6 mph - N/A   Clear
12:53 PM 73.0 °F 45.0 °F 37% 30.01 in 10.0 mi Calm Calm - N/A   Clear
1:53 PM 75.0 °F 46.0 °F 36% 30.00 in 10.0 mi NNW 10.4 mph - N/A   Clear
2:53 PM 77.0 °F 45.0 °F 32% 29.99 in 10.0 mi NW 9.2 mph - N/A   Clear
3:53 PM 78.1 °F 46.9 °F 33% 29.98 in 10.0 mi NNE 6.9 mph - N/A   Clear
4:53 PM 77.0 °F 46.0 °F 33% 29.97 in 10.0 mi WNW 5.8 mph - N/A   Clear
5:53 PM 77.0 °F 46.9 °F 34% 29.97 in 10.0 mi NW 6.9 mph - N/A   Clear
6:53 PM 73.9 °F 48.0 °F 40% 29.99 in 10.0 mi NE 3.5 mph - N/A   Clear
7:53 PM 66.0 °F 55.0 °F 68% 30.01 in 10.0 mi Calm Calm - N/A   Clear
8:53 PM 62.1 °F 55.0 °F 78% 30.01 in 10.0 mi Calm Calm - N/A   Clear
9:53 PM 61.0 °F 55.0 °F 81% 30.02 in 10.0 mi Calm Calm - N/A   Clear
10:53 PM 57.0 °F 54.0 °F 89% 30.03 in 10.0 mi Calm Calm - N/A   Clear
11:53 PM 57.9 °F 54.0 °F 87% 30.04 in 10.0 mi Calm Calm - N/A   Clear